User: anonymous   Login
Location: Berg
(48.5667°N, 13.9833°E)
Time: 17:21:53
(UTC+00:00)
Language:

Cosmos 1174 - Orbit

View from above orbital plane
View from above orbital plane
View from above satellite
View from above satellite

Ground track
Ground track

The orbit data is extracted from the following two-line orbital elements,

1 11765U 80030A   20196.32712285  .00000277  00000-0  23958-4 0  9996
2 11765  66.0862  96.9387 0548981 350.9387   8.2099 14.39761844 68449
Epoch (UTC): 14 July 2020 07:51:03
Eccentricity: 0.0548981
inclination: 66.0862°
perigee height: 367 km
apogee height: 1151 km
right ascension of ascending node: 96.9387°
argument of perigee: 350.9387°
revolutions per day: 14.39761844
mean anomaly at epoch: 8.2099°
orbit number at epoch: 6844

The dashed part of the orbit path shows where the satellite is in the earth's shadow,  

DLR